Time,TemperatureF,DewpointF,PressureIn,WindDirection,WindDirectionDegrees,WindSpeedMPH,WindSpeedGustMPH,Humidity,HourlyPrecipIn,Conditions,Clouds,dailyrainin,SoftwareType,DateUTC
2013-01-29 00:03:00,31.2,30.7,29.64,ESE,102,2.0,4.0,98,0.00,,-RA,0.00,VWS V14.01,2013-01-29 06:03:00,
2013-01-29 00:08:00,31.3,30.8,29.63,ESE,104,2.0,4.0,98,0.00,,-RA,0.00,VWS V14.01,2013-01-29 06:08:00,
2013-01-29 00:13:00,31.3,30.8,29.64,East,89,2.0,4.0,98,0.00,,-RA,0.00,VWS V14.01,2013-01-29 06:13:00,
2013-01-29 00:18:00,31.3,30.8,29.64,ESE,117,0.0,4.0,98,0.00,,-RA,0.00,VWS V14.01,2013-01-29 06:18:00,
2013-01-29 00:23:00,31.4,30.9,29.64,ESE,105,0.0,4.0,98,0.00,,-RA,0.00,VWS V14.01,2013-01-29 06:23:00,
2013-01-29 00:28:00,31.4,30.9,29.65,WNW,293,0.0,4.0,98,0.00,,-RA,0.00,VWS V14.01,2013-01-29 06:28:00,
2013-01-29 00:33:00,31.4,30.9,29.65,WNW,284,0.0,1.0,98,0.00,,,0.00,VWS V14.01,2013-01-29 06:33:00,
2013-01-29 00:38:00,31.5,31.0,29.65,West,277,0.0,1.0,98,0.00,,,0.00,VWS V14.01,2013-01-29 06:38:00,
2013-01-29 00:43:00,31.5,31.0,29.65,West,280,0.0,1.0,98,0.00,,,0.00,VWS V14.01,2013-01-29 06:43:00,
2013-01-29 00:48:00,31.6,31.1,29.64,West,280,0.0,1.0,98,0.00,,,0.00,VWS V14.01,2013-01-29 06:48:00,
2013-01-29 00:53:00,31.6,31.1,29.64,West,280,0.0,1.0,98,0.00,,,0.00,VWS V14.01,2013-01-29 06:53:00,
2013-01-29 00:58:00,31.7,31.2,29.63,West,280,0.0,1.0,98,0.00,,,0.00,VWS V14.01,2013-01-29 06:58:00,
2013-01-29 01:03:00,31.7,31.2,29.63,WNW,288,0.0,1.0,98,0.00,,,0.00,VWS V14.01,2013-01-29 07:03:00,
2013-01-29 01:08:00,31.7,31.2,29.63,WNW,302,0.0,1.0,98,0.00,,,0.00,VWS V14.01,2013-01-29 07:08:00,
2013-01-29 01:13:00,31.7,31.2,29.62,WNW,302,0.0,1.0,98,0.00,,,0.00,VWS V14.01,2013-01-29 07:13:00,
2013-01-29 01:18:00,31.8,31.3,29.62,NE,43,1.0,1.0,98,0.00,,,0.00,VWS V14.01,2013-01-29 07:18:00,
2013-01-29 01:23:00,31.7,31.2,29.61,NE,43,0.0,1.0,98,0.00,,,0.00,VWS V14.01,2013-01-29 07:23:00,
2013-01-29 01:28:00,31.7,31.2,29.61,NE,43,1.0,1.0,98,0.00,,,0.00,VWS V14.01,2013-01-29 07:28:00,
2013-01-29 01:33:00,31.7,31.2,29.60,ENE,65,3.0,3.0,98,0.00,,,0.00,VWS V14.01,2013-01-29 07:33:00,
2013-01-29 01:38:00,31.6,31.1,29.60,NE,49,2.0,3.0,98,0.00,,,0.00,VWS V14.01,2013-01-29 07:38:00,
2013-01-29 01:43:00,31.6,31.1,29.60,NE,53,1.0,3.0,98,0.00,,,0.00,VWS V14.01,2013-01-29 07:43:00,
2013-01-29 01:48:00,31.5,31.0,29.59,NE,51,1.0,3.0,98,0.00,,,0.00,VWS V14.01,2013-01-29 07:48:00,
2013-01-29 01:53:00,31.5,31.0,29.60,NE,48,1.0,3.0,98,0.00,,,0.00,VWS V14.01,2013-01-29 07:53:00,
2013-01-29 01:58:00,31.5,31.0,29.59,NNE,30,0.0,3.0,98,0.00,,,0.00,VWS V14.01,2013-01-29 07:58:00,
2013-01-29 02:03:00,31.5,31.0,29.59,NE,43,3.0,3.0,98,0.00,,,0.00,VWS V14.01,2013-01-29 08:03:00,
2013-01-29 02:08:00,31.5,31.0,29.59,NE,53,1.0,3.0,98,0.00,,,0.00,VWS V14.01,2013-01-29 08:08:00,
2013-01-29 02:13:00,31.4,30.9,29.59,NE,41,1.0,3.0,98,0.00,,,0.00,VWS V14.01,2013-01-29 08:13:00,
2013-01-29 02:18:00,31.5,31.0,29.59,NE,48,1.0,4.0,98,0.00,,,0.00,VWS V14.01,2013-01-29 08:18:00,
2013-01-29 02:23:00,31.5,31.0,29.59,NE,47,1.0,4.0,98,0.00,,,0.00,VWS V14.01,2013-01-29 08:23:00,
2013-01-29 02:28:00,31.5,31.0,29.59,NE,52,2.0,4.0,98,0.00,,,0.00,VWS V14.01,2013-01-29 08:28:00,
2013-01-29 02:33:00,31.5,31.0,29.59,NE,48,2.0,3.0,98,0.00,,OVC002,0.00,VWS V14.01,2013-01-29 08:33:00,
2013-01-29 02:38:00,31.5,31.0,29.59,NE,50,1.0,3.0,98,0.00,,OVC002,0.00,VWS V14.01,2013-01-29 08:38:00,
2013-01-29 02:43:00,31.5,31.0,29.59,NE,48,1.0,3.0,98,0.00,,OVC002,0.00,VWS V14.01,2013-01-29 08:43:00,
2013-01-29 02:48:00,31.5,31.0,29.58,NE,46,2.0,3.0,98,0.00,,OVC002,0.00,VWS V14.01,2013-01-29 08:48:00,
2013-01-29 02:53:00,31.5,31.0,29.58,NE,49,2.0,3.0,98,0.00,,OVC004,0.00,VWS V14.01,2013-01-29 08:53:00,
2013-01-29 02:58:00,31.4,30.9,29.57,NE,46,3.0,4.0,98,0.00,,OVC004,0.00,VWS V14.01,2013-01-29 08:58:00,
2013-01-29 03:03:00,31.4,30.9,29.57,NE,48,3.0,4.0,98,0.00,,OVC004,0.00,VWS V14.01,2013-01-29 09:03:00,
2013-01-29 03:08:00,31.4,30.9,29.56,NE,56,2.0,5.0,98,0.00,,OVC004,0.00,VWS V14.01,2013-01-29 09:08:00,
2013-01-29 03:13:00,31.4,30.9,29.57,NE,49,1.0,5.0,98,0.00,,OVC004,0.00,VWS V14.01,2013-01-29 09:13:00,
2013-01-29 03:18:00,31.5,31.0,29.58,WNW,283,0.0,5.0,98,0.00,,OVC004,0.00,VWS V14.01,2013-01-29 09:18:00,
2013-01-29 03:23:00,31.5,31.0,29.58,WNW,283,0.0,5.0,98,0.00,,OVC004,0.00,VWS V14.01,2013-01-29 09:23:00,
2013-01-29 03:28:00,31.5,31.0,29.58,NNE,28,1.0,5.0,98,0.00,,OVC004,0.00,VWS V14.01,2013-01-29 09:28:00,
2013-01-29 03:33:00,31.5,31.0,29.57,NE,53,2.0,3.0,98,0.00,,OVC004,0.00,VWS V14.01,2013-01-29 09:33:00,
2013-01-29 03:38:00,31.5,31.0,29.57,NE,56,1.0,3.0,98,0.00,,OVC004,0.00,VWS V14.01,2013-01-29 09:38:00,
2013-01-29 03:43:00,31.5,31.0,29.58,NNE,19,1.0,3.0,98,0.00,,OVC004,0.00,VWS V14.01,2013-01-29 09:43:00,
2013-01-29 03:48:00,31.5,31.0,29.58,NNW,340,0.0,3.0,98,0.00,,OVC004,0.00,VWS V14.01,2013-01-29 09:48:00,
2013-01-29 03:53:00,31.6,31.1,29.58,NW,312,0.0,3.0,98,0.00,,OVC004,0.00,VWS V14.01,2013-01-29 09:53:00,
2013-01-29 03:58:00,31.6,31.1,29.58,NW,311,0.0,3.0,98,0.00,,OVC004,0.00,VWS V14.01,2013-01-29 09:58:00,
2013-01-29 04:03:00,31.6,31.1,29.57,West,259,0.0,2.0,98,0.00,,OVC004,0.00,VWS V14.01,2013-01-29 10:03:00,
2013-01-29 04:08:00,31.6,31.1,29.57,NE,41,0.0,3.0,98,0.00,,OVC004,0.00,VWS V14.01,2013-01-29 10:08:00,
2013-01-29 04:13:00,31.6,31.1,29.56,North,8,3.0,4.0,98,0.00,,OVC004,0.00,VWS V14.01,2013-01-29 10:13:00,
2013-01-29 04:18:00,31.5,31.0,29.56,NE,39,1.0,4.0,98,0.00,,OVC004,0.00,VWS V14.01,2013-01-29 10:18:00,
2013-01-29 04:23:00,31.5,31.0,29.55,NE,56,1.0,4.0,98,0.00,,OVC004,0.00,VWS V14.01,2013-01-29 10:23:00,
2013-01-29 04:28:00,31.5,31.0,29.54,NE,49,2.0,4.0,98,0.00,,OVC004,0.00,VWS V14.01,2013-01-29 10:28:00,
2013-01-29 04:33:00,31.5,31.0,29.55,North,356,1.0,2.0,98,0.00,,OVC004,0.00,VWS V14.01,2013-01-29 10:33:00,
2013-01-29 04:38:00,31.5,31.0,29.54,NNE,29,1.0,2.0,98,0.00,,OVC004,0.00,VWS V14.01,2013-01-29 10:38:00,
2013-01-29 04:43:00,31.4,30.9,29.54,ENE,65,0.0,2.0,98,0.00,,OVC004,0.00,VWS V14.01,2013-01-29 10:43:00,
2013-01-29 04:48:00,31.5,31.0,29.55,North,5,2.0,2.0,98,0.00,,OVC004,0.00,VWS V14.01,2013-01-29 10:48:00,
2013-01-29 04:53:00,31.5,31.0,29.55,North,349,0.0,3.0,98,0.00,,OVC004,0.00,VWS V14.01,2013-01-29 10:53:00,
2013-01-29 04:58:00,31.4,30.9,29.55,North,349,0.0,3.0,98,0.00,,OVC004,0.00,VWS V14.01,2013-01-29 10:58:00,
2013-01-29 05:03:00,31.5,31.0,29.55,North,349,0.0,0.0,98,0.00,,OVC004,0.00,VWS V14.01,2013-01-29 11:03:00,
2013-01-29 05:08:00,31.5,31.0,29.56,NNW,331,0.0,1.0,98,0.00,,OVC004,0.00,VWS V14.01,2013-01-29 11:08:00,
2013-01-29 05:13:00,31.5,31.0,29.56,NW,307,0.0,1.0,98,0.00,,OVC004,0.00,VWS V14.01,2013-01-29 11:13:00,
2013-01-29 05:18:00,31.5,31.0,29.55,NW,307,0.0,1.0,98,0.00,,OVC004,0.00,VWS V14.01,2013-01-29 11:18:00,
2013-01-29 05:23:00,31.5,31.0,29.56,WNW,299,1.0,2.0,98,0.00,,OVC004,0.00,VWS V14.01,2013-01-29 11:23:00,
2013-01-29 05:28:00,31.5,31.0,29.56,WNW,297,1.0,2.0,98,0.00,,OVC004,0.00,VWS V14.01,2013-01-29 11:28:00,
2013-01-29 05:33:00,31.5,31.0,29.55,WNW,295,0.0,1.0,98,0.00,,OVC004,0.00,VWS V14.01,2013-01-29 11:33:00,
2013-01-29 05:38:00,31.4,30.9,29.54,WNW,295,0.0,1.0,98,0.00,,OVC004,0.00,VWS V14.01,2013-01-29 11:38:00,
2013-01-29 05:43:00,31.5,31.0,29.54,WNW,300,0.0,1.0,98,0.00,,OVC004,0.00,VWS V14.01,2013-01-29 11:43:00,
2013-01-29 05:48:00,31.4,30.9,29.55,WNW,299,0.0,1.0,98,0.00,,OVC004,0.00,VWS V14.01,2013-01-29 11:48:00,
2013-01-29 05:53:00,31.4,30.9,29.55,WNW,300,2.0,2.0,98,0.00,,OVC004,0.00,VWS V14.01,2013-01-29 11:53:00,
2013-01-29 05:58:00,31.4,30.9,29.54,North,360,1.0,2.0,98,0.00,,OVC004,0.00,VWS V14.01,2013-01-29 11:58:00,
2013-01-29 06:03:00,31.4,30.9,29.55,North,352,1.0,1.0,98,0.00,,OVC004,0.00,VWS V14.01,2013-01-29 12:03:00,
2013-01-29 06:08:00,31.4,30.9,29.55,WNW,302,1.0,2.0,98,0.00,,OVC004,0.00,VWS V14.01,2013-01-29 12:08:00,
2013-01-29 06:13:00,31.4,30.9,29.56,WNW,302,1.0,2.0,98,0.00,,OVC004,0.00,VWS V14.01,2013-01-29 12:13:00,
2013-01-29 06:18:00,31.4,30.9,29.55,NW,307,0.0,2.0,98,0.00,,OVC004,0.00,VWS V14.01,2013-01-29 12:18:00,
2013-01-29 06:23:00,31.4,30.9,29.54,NW,321,1.0,2.0,98,0.00,,OVC004,0.00,VWS V14.01,2013-01-29 12:23:00,
2013-01-29 06:28:00,31.4,30.9,29.52,North,349,1.0,3.0,98,0.00,,OVC004,0.00,VWS V14.01,2013-01-29 12:28:00,
2013-01-29 06:33:00,31.3,30.8,29.52,NNE,16,0.0,3.0,98,0.00,,OVC004,0.00,VWS V14.01,2013-01-29 12:33:00,
2013-01-29 06:38:00,31.3,30.8,29.52,North,1,0.0,3.0,98,0.00,,OVC004,0.00,VWS V14.01,2013-01-29 12:38:00,
2013-01-29 06:43:00,31.3,30.8,29.54,SW,232,0.0,3.0,98,0.00,,OVC004,0.00,VWS V14.01,2013-01-29 12:43:00,
2013-01-29 06:48:00,31.3,30.8,29.53,SW,232,0.0,3.0,98,0.00,,OVC004,0.00,VWS V14.01,2013-01-29 12:48:00,
2013-01-29 06:53:00,31.3,30.8,29.54,NNW,334,0.0,3.0,98,0.00,,OVC004,0.00,VWS V14.01,2013-01-29 12:53:00,
2013-01-29 06:58:00,31.4,30.9,29.53,NNE,15,1.0,3.0,98,0.00,,OVC004,0.00,VWS V14.01,2013-01-29 12:58:00,
2013-01-29 07:03:00,31.4,30.9,29.53,North,11,0.0,2.0,98,0.00,,OVC004,0.00,VWS V14.01,2013-01-29 13:03:00,
2013-01-29 07:08:00,31.3,30.8,29.53,NW,315,0.0,2.0,98,0.00,,OVC004,0.00,VWS V14.01,2013-01-29 13:08:00,
2013-01-29 07:13:00,31.3,30.8,29.54,WNW,300,1.0,2.0,98,0.00,,OVC004,0.00,VWS V14.01,2013-01-29 13:13:00,
2013-01-29 07:18:00,31.4,30.9,29.55,WNW,300,0.0,2.0,98,0.00,,OVC004,0.00,VWS V14.01,2013-01-29 13:18:00,
2013-01-29 07:23:00,31.4,30.9,29.55,WNW,300,0.0,2.0,98,0.00,,OVC004,0.00,VWS V14.01,2013-01-29 13:23:00,
2013-01-29 07:28:00,31.4,30.9,29.55,WNW,283,0.0,2.0,98,0.00,,OVC004,0.00,VWS V14.01,2013-01-29 13:28:00,
2013-01-29 07:33:00,31.4,30.9,29.55,WNW,283,0.0,1.0,98,0.00,,OVC004,0.00,VWS V14.01,2013-01-29 13:33:00,
2013-01-29 07:38:00,31.4,30.9,29.56,West,280,1.0,1.0,98,0.00,,OVC004,0.00,VWS V14.01,2013-01-29 13:38:00,
2013-01-29 07:42:00,31.4,30.9,29.56,West,280,0.0,1.0,98,0.00,,OVC004,0.00,VWS V14.01,2013-01-29 13:42:00,
2013-01-29 07:48:00,31.4,30.9,29.55,West,280,0.0,1.0,98,0.00,,OVC004,0.00,VWS V14.01,2013-01-29 13:48:00,
2013-01-29 07:52:00,31.5,31.0,29.56,West,280,0.0,1.0,98,0.00,,OVC004,0.00,VWS V14.01,2013-01-29 13:52:00,
2013-01-29 07:57:00,31.6,31.1,29.56,West,280,0.0,1.0,98,0.00,,OVC004,0.00,VWS V14.01,2013-01-29 13:57:00,
2013-01-29 08:02:00,31.6,31.1,29.55,West,280,0.0,0.0,98,0.00,,OVC004,0.00,VWS V14.01,2013-01-29 14:02:00,
2013-01-29 08:07:00,31.7,31.2,29.56,West,280,0.0,1.0,98,0.00,,OVC004,0.00,VWS V14.01,2013-01-29 14:07:00,
2013-01-29 08:13:00,31.7,31.2,29.57,West,272,2.0,2.0,98,0.00,,OVC004,0.00,VWS V14.01,2013-01-29 14:13:00,
2013-01-29 08:18:00,31.7,31.2,29.58,West,278,3.0,3.0,98,0.00,,OVC004,0.00,VWS V14.01,2013-01-29 14:18:00,
2013-01-29 08:22:00,31.7,31.2,29.59,West,278,3.0,5.0,98,0.00,,OVC004,0.00,VWS V14.01,2013-01-29 14:22:00,
2013-01-29 08:27:00,31.8,31.3,29.59,West,278,2.0,5.0,98,0.00,,OVC004,0.00,VWS V14.01,2013-01-29 14:27:00,
2013-01-29 08:32:00,31.8,31.3,29.59,West,278,3.0,5.0,98,0.00,,OVC055,0.00,VWS V14.01,2013-01-29 14:32:00,
2013-01-29 08:37:00,31.8,31.3,29.59,WNW,290,2.0,5.0,98,0.00,,OVC055,0.00,VWS V14.01,2013-01-29 14:37:00,
2013-01-29 08:42:00,31.8,31.3,29.58,WNW,295,2.0,5.0,98,0.00,,OVC055,0.00,VWS V14.01,2013-01-29 14:42:00,
2013-01-29 08:47:00,31.8,31.3,29.58,WNW,292,1.0,5.0,98,0.00,,OVC055,0.00,VWS V14.01,2013-01-29 14:47:00,
2013-01-29 08:52:00,31.8,31.3,29.59,West,281,2.0,5.0,98,0.00,,OVC035,0.00,VWS V14.01,2013-01-29 14:52:00,
2013-01-29 08:57:00,31.9,31.4,29.58,WNW,302,3.0,5.0,98,0.00,,OVC035,0.00,VWS V14.01,2013-01-29 14:57:00,
2013-01-29 09:02:00,31.9,31.4,29.59,WNW,290,1.0,3.0,98,0.00,,OVC035,0.00,VWS V14.01,2013-01-29 15:02:00,
2013-01-29 09:07:00,31.9,31.4,29.58,NW,307,2.0,4.0,98,0.00,,OVC035,0.00,VWS V14.01,2013-01-29 15:07:00,
2013-01-29 09:12:00,31.9,31.4,29.58,WNW,302,3.0,4.0,98,0.00,,OVC035,0.00,VWS V14.01,2013-01-29 15:12:00,
2013-01-29 09:17:00,32.0,31.5,29.58,WNW,287,3.0,5.0,98,0.00,,OVC035,0.00,VWS V14.01,2013-01-29 15:17:00,
2013-01-29 09:22:00,32.0,31.5,29.58,NW,325,3.0,5.0,98,0.00,,OVC035,0.00,VWS V14.01,2013-01-29 15:22:00,
2013-01-29 09:27:00,32.1,31.6,29.59,WNW,297,3.0,5.0,98,0.00,,OVC035,0.00,VWS V14.01,2013-01-29 15:27:00,
2013-01-29 09:32:00,32.1,31.6,29.60,West,264,2.0,4.0,98,0.00,,OVC022,0.00,VWS V14.01,2013-01-29 15:32:00,
2013-01-29 09:37:00,32.2,31.7,29.60,WNW,293,3.0,7.0,98,0.00,,OVC022,0.00,VWS V14.01,2013-01-29 15:37:00,
2013-01-29 09:42:00,32.3,31.8,29.60,WNW,288,2.0,7.0,98,0.00,,OVC022,0.00,VWS V14.01,2013-01-29 15:42:00,
2013-01-29 09:47:00,32.4,31.9,29.59,NW,307,2.0,7.0,98,0.00,,OVC022,0.00,VWS V14.01,2013-01-29 15:47:00,
2013-01-29 09:52:00,32.4,31.9,29.59,WNW,288,1.0,7.0,98,0.00,,OVC010,0.00,VWS V14.01,2013-01-29 15:52:00,
2013-01-29 09:57:00,32.5,31.7,29.58,WNW,302,3.0,7.0,97,0.00,,OVC010,0.00,VWS V14.01,2013-01-29 15:57:00,
2013-01-29 10:02:00,32.5,31.7,29.58,WNW,301,2.0,3.0,97,0.00,,OVC010,0.00,VWS V14.01,2013-01-29 16:02:00,
2013-01-29 10:07:00,32.6,31.8,29.58,WNW,290,4.0,5.0,97,0.00,,OVC010,0.00,VWS V14.01,2013-01-29 16:07:00,
2013-01-29 10:12:00,32.8,32.0,29.59,WNW,292,2.0,5.0,97,0.00,,OVC010,0.00,VWS V14.01,2013-01-29 16:12:00,
2013-01-29 10:17:00,32.9,32.1,29.59,NW,310,2.0,6.0,97,0.00,,OVC010,0.00,VWS V14.01,2013-01-29 16:17:00,
2013-01-29 10:22:00,32.9,32.1,29.60,WNW,285,2.0,6.0,97,0.00,,OVC010,0.00,VWS V14.01,2013-01-29 16:22:00,
2013-01-29 10:27:00,33.0,32.2,29.60,NW,314,2.0,6.0,97,0.00,,OVC010,0.00,VWS V14.01,2013-01-29 16:27:00,
2013-01-29 10:32:00,33.1,32.3,29.60,WNW,299,4.0,6.0,97,0.00,,OVC016,0.00,VWS V14.01,2013-01-29 16:32:00,
2013-01-29 10:37:00,33.2,32.2,29.62,WNW,300,3.0,6.0,96,0.00,,OVC016,0.00,VWS V14.01,2013-01-29 16:37:00,
2013-01-29 10:42:00,33.3,32.3,29.62,WNW,302,2.0,6.0,96,0.00,,OVC016,0.00,VWS V14.01,2013-01-29 16:42:00,
2013-01-29 10:47:00,33.4,32.4,29.62,NW,307,4.0,6.0,96,0.00,,OVC016,0.00,VWS V14.01,2013-01-29 16:47:00,
2013-01-29 10:52:00,33.5,32.2,29.62,North,349,2.0,6.0,95,0.00,,OVC016,0.00,VWS V14.01,2013-01-29 16:52:00,
2013-01-29 10:57:00,33.6,32.3,29.62,NW,311,2.0,6.0,95,0.00,,OVC016,0.00,VWS V14.01,2013-01-29 16:57:00,
2013-01-29 11:02:00,33.6,32.3,29.62,NW,314,2.0,6.0,95,0.00,,OVC016,0.00,VWS V14.01,2013-01-29 17:02:00,
2013-01-29 11:07:00,33.7,32.4,29.63,NNW,327,2.0,7.0,95,0.00,,OVC016,0.00,VWS V14.01,2013-01-29 17:07:00,
2013-01-29 11:12:00,33.8,32.3,29.63,WNW,296,2.0,7.0,94,0.00,,OVC016,0.00,VWS V14.01,2013-01-29 17:12:00,
2013-01-29 11:17:00,33.8,32.0,29.63,NW,320,2.0,8.0,93,0.00,,OVC016,0.00,VWS V14.01,2013-01-29 17:17:00,
2013-01-29 11:22:00,33.8,32.0,29.64,NW,304,4.0,8.0,93,0.01,,OVC016,0.01,VWS V14.01,2013-01-29 17:22:00,
2013-01-29 11:27:00,34.0,32.2,29.63,NNW,344,1.0,8.0,93,0.01,,OVC016,0.01,VWS V14.01,2013-01-29 17:27:00,
2013-01-29 11:32:00,34.1,32.0,29.63,NW,318,2.0,4.0,92,0.01,,OVC014,0.01,VWS V14.01,2013-01-29 17:32:00,
2013-01-29 11:37:00,34.4,32.6,29.62,NW,312,1.0,4.0,93,0.01,,OVC014,0.01,VWS V14.01,2013-01-29 17:37:00,
2013-01-29 11:42:00,34.4,32.3,29.62,NW,322,1.0,4.0,92,0.01,,OVC014,0.01,VWS V14.01,2013-01-29 17:42:00,
2013-01-29 11:47:00,34.6,32.5,29.62,NNW,336,1.0,4.0,92,0.02,,OVC014,0.02,VWS V14.01,2013-01-29 17:47:00,
2013-01-29 11:52:00,34.8,32.7,29.62,WNW,297,0.0,4.0,92,0.02,,OVC014,0.02,VWS V14.01,2013-01-29 17:52:00,
2013-01-29 11:57:00,34.7,32.3,29.63,NW,319,3.0,5.0,91,0.02,,OVC014,0.02,VWS V14.01,2013-01-29 17:57:00,
2013-01-29 12:02:00,34.5,31.9,29.63,NW,321,3.0,7.0,90,0.02,,OVC014,0.02,VWS V14.01,2013-01-29 18:02:00,
2013-01-29 12:07:00,34.6,32.2,29.63,WNW,293,4.0,7.0,91,0.02,,OVC014,0.02,VWS V14.01,2013-01-29 18:07:00,
2013-01-29 12:12:00,34.7,32.1,29.64,NW,314,6.0,8.0,90,0.02,,OVC014,0.02,VWS V14.01,2013-01-29 18:12:00,
2013-01-29 12:17:00,34.8,32.2,29.64,WNW,299,2.0,8.0,90,0.02,,OVC014,0.02,VWS V14.01,2013-01-29 18:17:00,
2013-01-29 12:22:00,34.8,31.9,29.64,WNW,302,3.0,8.0,89,0.03,,OVC014,0.03,VWS V14.01,2013-01-29 18:22:00,
2013-01-29 12:27:00,34.9,32.0,29.64,WNW,298,2.0,8.0,89,0.03,,OVC014,0.03,VWS V14.01,2013-01-29 18:27:00,
2013-01-29 12:32:00,35.1,32.5,29.64,NW,322,2.0,4.0,90,0.02,,BKN014,0.03,VWS V14.01,2013-01-29 18:32:00,
2013-01-29 12:37:00,35.2,32.3,29.64,WNW,293,2.0,4.0,89,0.02,,OVC014,0.03,VWS V14.01,2013-01-29 18:37:00,
2013-01-29 12:42:00,35.1,31.9,29.64,NW,305,2.0,5.0,88,0.02,,OVC014,0.03,VWS V14.01,2013-01-29 18:42:00,
2013-01-29 12:47:00,35.0,31.8,29.64,West,271,4.0,5.0,88,0.02,,BKN014,0.03,VWS V14.01,2013-01-29 18:47:00,
2013-01-29 12:52:00,34.9,31.7,29.63,NNW,327,2.0,5.0,88,0.03,,OVC014,0.04,VWS V14.01,2013-01-29 18:52:00,
2013-01-29 12:57:00,34.8,31.6,29.63,NW,305,2.0,6.0,88,0.03,,OVC014,0.04,VWS V14.01,2013-01-29 18:57:00,
2013-01-29 13:02:00,34.9,31.7,29.63,NW,321,3.0,3.0,88,0.02,,OVC014,0.04,VWS V14.01,2013-01-29 19:02:00,
2013-01-29 13:07:00,34.9,31.7,29.63,NNW,330,1.0,4.0,88,0.02,,OVC014,0.04,VWS V14.01,2013-01-29 19:07:00,
2013-01-29 13:12:00,34.9,31.7,29.64,NW,318,2.0,4.0,88,0.02,,OVC014,0.04,VWS V14.01,2013-01-29 19:12:00,
2013-01-29 13:17:00,34.9,31.7,29.64,WNW,292,4.0,5.0,88,0.02,,OVC014,0.04,VWS V14.01,2013-01-29 19:17:00,
2013-01-29 13:22:00,34.9,32.0,29.63,WNW,303,1.0,5.0,89,0.03,,OVC014,0.05,VWS V14.01,2013-01-29 19:22:00,
2013-01-29 13:27:00,34.8,31.6,29.64,West,281,5.0,8.0,88,0.03,,OVC014,0.05,VWS V14.01,2013-01-29 19:27:00,
2013-01-29 13:32:00,34.7,31.5,29.63,WNW,288,2.0,5.0,88,0.02,,OVC016,0.05,VWS V14.01,2013-01-29 19:32:00,
2013-01-29 13:37:00,34.7,31.8,29.64,NW,309,1.0,5.0,89,0.02,,OVC016,0.05,VWS V14.01,2013-01-29 19:37:00,
2013-01-29 13:42:00,34.8,31.6,29.64,WNW,291,0.0,5.0,88,0.02,,OVC016,0.05,VWS V14.01,2013-01-29 19:42:00,
2013-01-29 13:47:00,35.0,31.8,29.64,NW,312,0.0,5.0,88,0.02,,OVC016,0.05,VWS V14.01,2013-01-29 19:47:00,
2013-01-29 13:52:00,35.1,31.9,29.64,WNW,296,0.0,5.0,88,0.02,,OVC020,0.05,VWS V14.01,2013-01-29 19:52:00,
2013-01-29 13:57:00,35.1,31.6,29.63,NNW,327,1.0,5.0,87,0.02,,OVC020,0.05,VWS V14.01,2013-01-29 19:57:00,
2013-01-29 14:02:00,35.1,31.6,29.62,NW,322,2.0,5.0,87,0.02,,OVC020,0.06,VWS V14.01,2013-01-29 20:02:00,
2013-01-29 14:07:00,35.0,31.5,29.62,NW,320,3.0,5.0,87,0.02,,OVC020,0.06,VWS V14.01,2013-01-29 20:07:00,
2013-01-29 14:12:00,34.9,31.4,29.62,WNW,302,3.0,6.0,87,0.02,,OVC020,0.06,VWS V14.01,2013-01-29 20:12:00,
2013-01-29 14:17:00,34.9,31.4,29.62,NW,315,1.0,6.0,87,0.02,,OVC020,0.06,VWS V14.01,2013-01-29 20:17:00,
2013-01-29 14:22:00,35.0,31.5,29.62,NW,307,1.0,6.0,87,0.02,,OVC020,0.06,VWS V14.01,2013-01-29 20:22:00,
2013-01-29 14:27:00,34.9,31.4,29.63,NW,316,4.0,6.0,87,0.02,,OVC020,0.06,VWS V14.01,2013-01-29 20:27:00,
2013-01-29 14:32:00,34.8,31.3,29.62,WNW,298,2.0,5.0,87,0.01,,OVC017,0.06,VWS V14.01,2013-01-29 20:32:00,
2013-01-29 14:37:00,34.7,31.2,29.63,NNW,339,2.0,5.0,87,0.01,,OVC017,0.06,VWS V14.01,2013-01-29 20:37:00,
2013-01-29 14:42:00,34.7,31.2,29.63,NNW,347,2.0,5.0,87,0.01,,OVC017,0.06,VWS V14.01,2013-01-29 20:42:00,
2013-01-29 14:47:00,34.6,31.1,29.62,WNW,302,1.0,5.0,87,0.01,,OVC020,0.06,VWS V14.01,2013-01-29 20:47:00,
2013-01-29 14:52:00,34.5,31.0,29.63,WNW,293,2.0,5.0,87,0.02,,OVC017,0.07,VWS V14.01,2013-01-29 20:52:00,
2013-01-29 14:57:00,34.5,31.0,29.63,North,356,3.0,5.0,87,0.02,,OVC017,0.07,VWS V14.01,2013-01-29 20:57:00,
2013-01-29 15:02:00,34.4,31.2,29.63,NW,316,1.0,2.0,88,0.02,,OVC017,0.07,VWS V14.01,2013-01-29 21:02:00,
2013-01-29 15:07:00,34.3,30.8,29.63,NW,314,1.0,7.0,87,0.02,,OVC017,0.07,VWS V14.01,2013-01-29 21:07:00,
2013-01-29 15:12:00,34.1,30.6,29.63,NW,312,2.0,7.0,87,0.02,,OVC017,0.07,VWS V14.01,2013-01-29 21:12:00,
2013-01-29 15:17:00,33.9,30.5,29.64,WNW,295,4.0,7.0,87,0.02,,OVC017,0.07,VWS V14.01,2013-01-29 21:17:00,
2013-01-29 15:22:00,33.8,30.1,29.64,NW,316,3.0,7.0,86,0.02,,OVC017,0.07,VWS V14.01,2013-01-29 21:22:00,
2013-01-29 15:27:00,33.7,30.0,29.64,NW,308,1.0,7.0,86,0.02,,OVC017,0.07,VWS V14.01,2013-01-29 21:27:00,
2013-01-29 15:32:00,33.6,29.9,29.64,NNW,340,3.0,5.0,86,0.01,,OVC017,0.07,VWS V14.01,2013-01-29 21:32:00,
2013-01-29 15:37:00,33.5,29.8,29.65,NW,307,3.0,5.0,86,0.01,,OVC017,0.07,VWS V14.01,2013-01-29 21:37:00,
2013-01-29 15:42:00,33.5,29.8,29.65,NW,314,2.0,8.0,86,0.01,,OVC017,0.07,VWS V14.01,2013-01-29 21:42:00,
2013-01-29 15:47:00,33.4,29.7,29.65,NW,311,5.0,8.0,86,0.01,,OVC017,0.07,VWS V14.01,2013-01-29 21:47:00,
2013-01-29 15:52:00,33.3,29.6,29.66,NNW,330,2.0,8.0,86,0.01,,OVC017,0.07,VWS V14.01,2013-01-29 21:52:00,
2013-01-29 15:57:00,33.3,29.6,29.66,WNW,295,2.0,8.0,86,0.01,,OVC017,0.07,VWS V14.01,2013-01-29 21:57:00,
2013-01-29 16:02:00,33.3,29.6,29.66,NW,320,2.0,3.0,86,0.00,,OVC017,0.07,VWS V14.01,2013-01-29 22:02:00,
2013-01-29 16:07:00,33.2,29.5,29.67,NW,309,3.0,7.0,86,0.00,,OVC017,0.07,VWS V14.01,2013-01-29 22:07:00,
2013-01-29 16:12:00,33.1,29.4,29.67,NW,307,6.0,7.0,86,0.00,,OVC017,0.07,VWS V14.01,2013-01-29 22:12:00,
2013-01-29 16:17:00,33.0,29.0,29.67,NW,319,2.0,7.0,85,0.00,,OVC017,0.07,VWS V14.01,2013-01-29 22:17:00,
2013-01-29 16:22:00,32.9,28.9,29.66,North,359,6.0,10.0,85,0.00,,OVC017,0.07,VWS V14.01,2013-01-29 22:22:00,
2013-01-29 16:27:00,32.8,28.8,29.67,NNW,330,2.0,10.0,85,0.00,,OVC017,0.07,VWS V14.01,2013-01-29 22:27:00,
2013-01-29 16:32:00,32.7,28.7,29.66,NW,323,2.0,4.0,85,0.00,,OVC017,0.07,VWS V14.01,2013-01-29 22:32:00,
2013-01-29 16:37:00,32.7,28.7,29.66,NW,325,3.0,4.0,85,0.00,,OVC019,0.07,VWS V14.01,2013-01-29 22:37:00,
2013-01-29 16:42:00,32.6,28.9,29.67,NW,314,2.0,4.0,86,0.00,,OVC019,0.07,VWS V14.01,2013-01-29 22:42:00,
2013-01-29 16:47:00,32.5,28.8,29.66,WNW,287,0.0,4.0,86,0.00,,OVC019,0.07,VWS V14.01,2013-01-29 22:47:00,
2013-01-29 16:52:00,32.4,28.7,29.67,NW,320,1.0,6.0,86,0.00,,OVC019,0.07,VWS V14.01,2013-01-29 22:52:00,
2013-01-29 16:57:00,32.3,28.6,29.67,NNW,338,0.0,6.0,86,0.00,,OVC019,0.07,VWS V14.01,2013-01-29 22:57:00,
2013-01-29 17:02:00,32.2,28.5,29.67,NW,312,4.0,8.0,86,0.00,,OVC019,0.07,VWS V14.01,2013-01-29 23:02:00,
2013-01-29 17:07:00,32.1,28.4,29.67,WNW,299,3.0,8.0,86,0.00,,OVC019,0.07,VWS V14.01,2013-01-29 23:07:00,
2013-01-29 17:12:00,32.0,28.3,29.67,NNE,12,1.0,8.0,86,0.00,,OVC019,0.07,VWS V14.01,2013-01-29 23:12:00,
2013-01-29 17:17:00,31.9,27.9,29.66,WNW,303,4.0,8.0,85,0.00,,OVC019,0.07,VWS V14.01,2013-01-29 23:17:00,
2013-01-29 17:22:00,31.8,27.8,29.66,NNW,338,3.0,9.0,85,0.00,,OVC019,0.07,VWS V14.01,2013-01-29 23:22:00,
2013-01-29 17:27:00,31.7,27.7,29.66,North,8,3.0,9.0,85,0.00,,OVC019,0.07,VWS V14.01,2013-01-29 23:27:00,
2013-01-29 17:32:00,31.6,27.6,29.67,North,353,2.0,7.0,85,0.00,,OVC019,0.07,VWS V14.01,2013-01-29 23:32:00,
2013-01-29 17:37:00,31.6,27.6,29.67,North,5,7.0,7.0,85,0.00,,OVC019,0.07,VWS V14.01,2013-01-29 23:37:00,
2013-01-29 17:42:00,31.5,27.5,29.68,North,8,1.0,9.0,85,0.00,,OVC019,0.07,VWS V14.01,2013-01-29 23:42:00,
2013-01-29 17:47:00,31.3,27.3,29.68,NNE,23,6.0,9.0,85,0.00,,OVC019,0.07,VWS V14.01,2013-01-29 23:47:00,
2013-01-29 17:52:00,31.2,27.2,29.69,NNE,20,3.0,10.0,85,0.00,,OVC017,0.07,VWS V14.01,2013-01-29 23:52:00,
2013-01-29 17:57:00,31.0,27.0,29.68,NE,47,3.0,10.0,85,0.00,,OVC017,0.07,VWS V14.01,2013-01-29 23:57:00,
2013-01-29 18:02:00,30.6,26.6,29.69,North,1,4.0,13.0,85,0.00,,OVC017,0.07,VWS V14.01,2013-01-30 00:02:00,
2013-01-29 18:07:00,30.4,26.4,29.69,North,4,0.0,13.0,85,0.00,,OVC017,0.07,VWS V14.01,2013-01-30 00:07:00,
2013-01-29 18:12:00,30.1,26.1,29.71,ENE,63,1.0,13.0,85,0.00,,OVC017,0.07,VWS V14.01,2013-01-30 00:12:00,
2013-01-29 18:17:00,30.0,26.0,29.70,WNW,285,1.0,13.0,85,0.00,,OVC017,0.07,VWS V14.01,2013-01-30 00:17:00,
2013-01-29 18:22:00,29.8,25.9,29.70,NNW,334,3.0,13.0,85,0.00,,OVC017,0.07,VWS V14.01,2013-01-30 00:22:00,
2013-01-29 18:27:00,29.7,25.8,29.70,NW,318,2.0,13.0,85,0.00,,OVC017,0.07,VWS V14.01,2013-01-30 00:27:00,
2013-01-29 18:32:00,29.7,25.8,29.71,NNE,32,3.0,10.0,85,0.00,,OVC017,0.07,VWS V14.01,2013-01-30 00:32:00,
2013-01-29 18:37:00,29.6,25.6,29.71,NNE,30,3.0,10.0,85,0.00,,OVC017,0.07,VWS V14.01,2013-01-30 00:37:00,
2013-01-29 18:42:00,29.5,25.6,29.71,NE,50,1.0,10.0,85,0.00,,OVC017,0.07,VWS V14.01,2013-01-30 00:42:00,
2013-01-29 18:47:00,29.5,25.6,29.72,NNW,347,2.0,10.0,85,0.00,,OVC017,0.07,VWS V14.01,2013-01-30 00:47:00,
2013-01-29 18:52:00,29.5,25.6,29.72,NE,44,3.0,10.0,85,0.00,,OVC017,0.07,VWS V14.01,2013-01-30 00:52:00,
2013-01-29 18:57:00,29.4,25.5,29.71,NE,47,0.0,10.0,85,0.00,,OVC017,0.07,VWS V14.01,2013-01-30 00:57:00,
2013-01-29 19:02:00,29.4,25.2,29.71,NE,46,1.0,6.0,84,0.00,,OVC017,0.07,VWS V14.01,2013-01-30 01:02:00,
2013-01-29 19:07:00,29.3,25.1,29.72,NNE,12,4.0,9.0,84,0.00,,OVC017,0.07,VWS V14.01,2013-01-30 01:07:00,
2013-01-29 19:12:00,29.3,24.8,29.73,NW,312,2.0,9.0,83,0.00,,OVC017,0.07,VWS V14.01,2013-01-30 01:12:00,
2013-01-29 19:17:00,29.2,24.7,29.70,NNE,22,4.0,10.0,83,0.00,,OVC017,0.07,VWS V14.01,2013-01-30 01:17:00,
2013-01-29 19:22:00,29.1,24.3,29.69,ENE,63,6.0,12.0,82,0.00,,OVC017,0.07,VWS V14.01,2013-01-30 01:22:00,
2013-01-29 19:27:00,29.1,24.6,29.70,NNE,22,6.0,13.0,83,0.00,,OVC017,0.07,VWS V14.01,2013-01-30 01:27:00,
2013-01-29 19:32:00,29.1,24.3,29.69,ENE,57,2.0,8.0,82,0.00,,OVC017,0.07,VWS V14.01,2013-01-30 01:32:00,
2013-01-29 19:37:00,29.0,24.2,29.68,NNW,347,3.0,16.0,82,0.00,,OVC019,0.07,VWS V14.01,2013-01-30 01:37:00,
2013-01-29 19:42:00,29.0,24.2,29.69,NW,321,3.0,17.0,82,0.00,,OVC019,0.07,VWS V14.01,2013-01-30 01:42:00,
2013-01-29 19:47:00,29.0,24.2,29.71,NNE,32,1.0,17.0,82,0.00,,OVC019,0.07,VWS V14.01,2013-01-30 01:47:00,
2013-01-29 19:52:00,29.0,24.2,29.72,NW,320,3.0,17.0,82,0.00,,OVC019,0.07,VWS V14.01,2013-01-30 01:52:00,
2013-01-29 19:57:00,29.0,24.2,29.73,NNE,16,2.0,17.0,82,0.00,,OVC019,0.07,VWS V14.01,2013-01-30 01:57:00,
2013-01-29 20:02:00,29.0,24.2,29.73,ENE,68,0.0,9.0,82,0.00,,OVC019,0.07,VWS V14.01,2013-01-30 02:02:00,
2013-01-29 20:07:00,29.0,24.5,29.73,West,263,0.0,9.0,83,0.00,,OVC019,0.07,VWS V14.01,2013-01-30 02:07:00,
2013-01-29 20:11:00,29.0,24.5,29.74,NNE,13,2.0,10.0,83,0.00,,OVC019,0.07,VWS V14.01,2013-01-30 02:11:00,
2013-01-29 20:16:00,29.0,24.5,29.73,NNE,18,3.0,10.0,83,0.00,,OVC019,0.07,VWS V14.01,2013-01-30 02:16:00,
2013-01-29 20:21:00,29.0,24.5,29.73,NE,36,2.0,10.0,83,0.00,,OVC019,0.07,VWS V14.01,2013-01-30 02:21:00,
2013-01-29 20:26:00,29.0,24.5,29.73,ENE,63,1.0,10.0,83,0.00,,OVC019,0.07,VWS V14.01,2013-01-30 02:26:00,
2013-01-29 20:31:00,29.0,24.5,29.73,NNW,347,5.0,6.0,83,0.00,,OVC019,0.07,VWS V14.01,2013-01-30 02:31:00,
2013-01-29 20:36:00,29.0,24.5,29.74,NW,323,1.0,9.0,83,0.00,,OVC019,0.07,VWS V14.01,2013-01-30 02:36:00,
2013-01-29 20:41:00,29.0,24.5,29.74,NE,41,0.0,10.0,83,0.00,,OVC019,0.07,VWS V14.01,2013-01-30 02:41:00,
2013-01-29 20:46:00,29.0,24.5,29.74,NNW,338,0.0,11.0,83,0.00,,OVC019,0.07,VWS V14.01,2013-01-30 02:46:00,
2013-01-29 20:51:00,29.0,24.8,29.74,NNE,22,0.0,11.0,84,0.00,,OVC021,0.07,VWS V14.01,2013-01-30 02:51:00,
2013-01-29 20:56:00,29.0,24.8,29.74,East,86,1.0,11.0,84,0.00,,OVC021,0.07,VWS V14.01,2013-01-30 02:56:00,
2013-01-29 21:01:00,29.0,24.8,29.74,SW,221,0.0,5.0,84,0.00,,OVC021,0.07,VWS V14.01,2013-01-30 03:01:00,
2013-01-29 21:06:00,29.0,24.8,29.73,NW,311,1.0,5.0,84,0.00,,OVC021,0.07,VWS V14.01,2013-01-30 03:06:00,
2013-01-29 21:11:00,29.0,24.8,29.73,NNW,327,1.0,8.0,84,0.00,,OVC021,0.07,VWS V14.01,2013-01-30 03:11:00,
2013-01-29 21:16:00,29.0,24.5,29.71,NE,49,3.0,8.0,83,0.00,,OVC021,0.07,VWS V14.01,2013-01-30 03:16:00,
2013-01-29 21:21:00,29.0,24.5,29.70,NE,36,0.0,8.0,83,0.00,,OVC021,0.07,VWS V14.01,2013-01-30 03:21:00,
2013-01-29 21:26:00,29.0,24.5,29.70,NW,305,0.0,8.0,83,0.00,,OVC021,0.07,VWS V14.01,2013-01-30 03:26:00,
2013-01-29 21:31:00,29.0,24.8,29.70,NNW,334,2.0,7.0,84,0.00,,OVC021,0.07,VWS V14.01,2013-01-30 03:31:00,
2013-01-29 21:36:00,28.9,24.4,29.70,North,360,1.0,7.0,83,0.00,,OVC021,0.07,VWS V14.01,2013-01-30 03:36:00,
2013-01-29 21:41:00,28.9,24.7,29.70,NW,320,2.0,10.0,84,0.00,,OVC021,0.07,VWS V14.01,2013-01-30 03:41:00,
2013-01-29 21:46:00,28.8,24.6,29.70,West,264,2.0,10.0,84,0.00,,OVC021,0.07,VWS V14.01,2013-01-30 03:46:00,
2013-01-29 21:51:00,28.8,24.6,29.71,NW,323,3.0,10.0,84,0.00,,OVC021,0.07,VWS V14.01,2013-01-30 03:51:00,
2013-01-29 21:56:00,28.8,24.3,29.71,NW,325,3.0,10.0,83,0.00,,OVC021,0.07,VWS V14.01,2013-01-30 03:56:00,
2013-01-29 22:01:00,28.6,24.1,29.72,NE,39,1.0,6.0,83,0.00,,OVC021,0.07,VWS V14.01,2013-01-30 04:01:00,
2013-01-29 22:06:00,28.6,24.1,29.74,NW,325,3.0,7.0,83,0.00,,OVC021,0.07,VWS V14.01,2013-01-30 04:06:00,
2013-01-29 22:11:00,28.6,24.1,29.74,NW,325,3.0,9.0,83,0.00,,OVC021,0.07,VWS V14.01,2013-01-30 04:11:00,
2013-01-29 22:16:00,28.5,24.0,29.75,NW,323,2.0,9.0,83,0.00,,OVC021,0.07,VWS V14.01,2013-01-30 04:16:00,
2013-01-29 22:21:00,28.4,23.9,29.75,WNW,303,1.0,9.0,83,0.00,,OVC021,0.07,VWS V14.01,2013-01-30 04:21:00,
2013-01-29 22:26:00,28.3,23.5,29.75,North,349,2.0,9.0,82,0.00,,OVC021,0.07,VWS V14.01,2013-01-30 04:26:00,
2013-01-29 22:31:00,28.2,23.1,29.75,NW,321,2.0,7.0,81,0.00,,OVC021,0.07,VWS V14.01,2013-01-30 04:31:00,
2013-01-29 22:36:00,28.1,23.0,29.75,NNW,342,0.0,7.0,81,0.00,,OVC021,0.07,VWS V14.01,2013-01-30 04:36:00,
2013-01-29 22:41:00,28.1,23.0,29.75,NNE,13,2.0,7.0,81,0.00,,OVC021,0.07,VWS V14.01,2013-01-30 04:41:00,
2013-01-29 22:46:00,28.1,22.7,29.75,NNW,344,3.0,8.0,80,0.00,,OVC021,0.07,VWS V14.01,2013-01-30 04:46:00,
2013-01-29 22:51:00,28.0,22.6,29.76,NW,309,1.0,8.0,80,0.00,,OVC023,0.07,VWS V14.01,2013-01-30 04:51:00,
2013-01-29 22:56:00,27.9,22.5,29.75,NW,323,0.0,11.0,80,0.00,,OVC023,0.07,VWS V14.01,2013-01-30 04:56:00,
2013-01-29 23:01:00,27.9,22.5,29.74,North,1,1.0,6.0,80,0.00,,OVC023,0.07,VWS V14.01,2013-01-30 05:01:00,
2013-01-29 23:02:00,27.8,22.4,29.74,North,11,4.0,6.0,80,0.00,,OVC023,0.07,VWS V14.01,2013-01-30 05:02:00,
2013-01-29 23:07:00,27.7,22.4,29.72,NNW,331,9.0,9.0,80,0.00,,OVC023,0.07,VWS V14.01,2013-01-30 05:07:00,
2013-01-29 23:12:00,27.7,22.4,29.73,NNW,333,1.0,12.0,80,0.00,,OVC023,0.07,VWS V14.01,2013-01-30 05:12:00,
2013-01-29 23:17:00,27.6,22.2,29.74,NE,43,1.0,12.0,80,0.00,,OVC023,0.07,VWS V14.01,2013-01-30 05:17:00,
2013-01-29 23:22:00,27.4,21.8,29.74,NW,322,0.0,12.0,79,0.00,,OVC023,0.07,VWS V14.01,2013-01-30 05:22:00,
2013-01-29 23:27:00,27.2,21.6,29.73,ENE,60,3.0,12.0,79,0.00,,OVC023,0.07,VWS V14.01,2013-01-30 05:27:00,
2013-01-29 23:32:00,27.1,21.5,29.74,NNW,333,0.0,6.0,79,0.00,,OVC023,0.07,VWS V14.01,2013-01-30 05:32:00,
2013-01-29 23:37:00,26.9,21.6,29.74,NW,323,3.0,8.0,80,0.00,,BKN120,0.07,VWS V14.01,2013-01-30 05:37:00,
2013-01-29 23:42:00,26.7,21.4,29.73,NNE,23,3.0,8.0,80,0.00,,BKN120,0.07,VWS V14.01,2013-01-30 05:42:00,
2013-01-29 23:47:00,26.5,21.2,29.72,North,6,4.0,8.0,80,0.00,,BKN120,0.07,VWS V14.01,2013-01-30 05:47:00,
2013-01-29 23:52:00,26.3,21.3,29.72,NNW,342,7.0,15.0,81,0.00,,SCT120,0.07,VWS V14.01,2013-01-30 05:52:00,
2013-01-29 23:57:00,26.1,20.8,29.73,NNW,334,1.0,15.0,80,0.00,,SCT120,0.07,VWS V14.01,2013-01-30 05:57:00,